Vertical_Velocity
-1 -1 -1 -0 0 0 0 0 0 -0 -1 -1 -2 -2 -3 -2 -1 -1 -1 -1 -1 -1 -0 -0 -1 -1 -0 0 1 1 1 1 1 1 2 3 2 2 1 1 0 -0 -1 -1 -1 -0 0 1 3 4 3 0 1 3 6 9 8 5 2 4 4 3 1 1 1 1 1 1 0
-2 -1 -1 -0 0 1 0 -0 -1 -1 -2 -2 -2 -2 -2 -1 -1 -0 -0 -0 -0 -0 0 0 -0 -0 -1 -1 -0 -0 -1 -0 -0 0 1 1 1 1 0 -0 -1 -1 -1 -1 -0 0 1 2 4 4 3 0 3 2 1 2 3 2 2 2 3 4 3 1 1 1 1 1 1
-2 -1 -1 0 0 0 -0 -1 -2 -2 -2 -2 -1 -0 0 0 1 1 1 0 -0 0 1 1 0 -0 -1 -2 -1 -1 -1 -1 -0 -0 0 0 -0 -0 -1 -1 -1 -1 -1 -0 -0 1 2 5 7 7 6 3 5 3 1 1 2 1 0 1 3 4 3 2 2 2 2 1 2
-2 -1 -1 -0 -0 -0 -1 -1 -2 -2 -1 -0 1 1 2 1 1 1 1 1 0 0 1 1 1 -0 -1 -2 -2 -2 -1 -1 -0 -0 -0 -1 -1 -1 -1 -1 -0 0 1 1 -0 1 3 8 11 11 10 7 2 0 0 2 3 3 1 1 3 3 3 3 3 3 3 2 3
-2 -1 -1 -0 -0 -1 -1 -1 -1 -1 0 2 2 2 2 1 1 1 1 1 1 0 0 1 1 -0 -1 -2 -3 -2 -1 -0 -0 -0 -0 -1 -1 -1 -1 -0 1 3 3 2 1 3 6 12 16 17 14 5 2 3 5 7 6 5 3 2 2 3 3 3 3 3 2 2 2
-2 -1 -1 -0 -0 -0 -0 -0 1 1 2 3 2 2 1 0 1 1 2 2 0 0 0 0 -0 -1 -1 -1 -2 -1 -1 -0 -0 -0 -1 -1 -1 -1 -0 -0 -0 -0 -1 -0 1 3 4 7 5 4 5 4 5 6 6 6 4 2 2 2 2 2 3 2 2 2 1 -0 0
-1 -1 -1 -0 0 1 1 2 2 3 3 2 1 0 -0 -0 1 2 2 1 0 -1 -1 -1 -1 -1 -0 -0 -0 -0 -0 -0 -0 -0 -0 -1 -1 -1 -0 0 0 0 -0 -1 -1 -1 -1 -1 -3 -3 -1 2 3 3 2 1 1 1 2 2 2 2 2 0 0 0 -0 -1 -1
-0 -0 0 1 1 1 2 2 3 2 2 1 0 -1 -1 0 1 1 1 0 -1 -2 -2 -2 -1 -1 0 1 1 0 0 0 0 1 1 -0 -0 -0 -0 0 0 0 -0 -0 -1 -1 -1 -1 -1 -2 -1 -0 -0 -0 0 1 1 1 2 1 1 1 1 -0 -1 -1 -0 -1 -1
1 1 1 1 1 2 2 2 1 1 0 -0 -1 -1 -0 1 2 1 -0 -1 -2 -2 -2 -1 -1 0 1 1 1 1 0 1 1 1 2 1 0 -0 -0 -0 -1 -1 -1 -0 -1 -1 -1 -0 -1 -1 -1 -0 -0 -0 0 1 1 1 1 1 -0 -1 -1 -0 -1 -1 -1 -0 -1
2 2 1 1 1 1 1 0 0 -0 -0 -1 -1 -0 1 2 1 1 -1 -1 -1 -1 -0 -0 1 1 1 1 1 0 -0 0 1 1 2 2 1 0 -0 -1 -1 -1 -1 -1 -0 -0 -1 -0 -1 -1 -1 -0 -0 -0 -0 1 -0 -1 -1 -1 -1 -2 -2 -1 -1 -1 -1 -1 -1
2 1 1 -0 -0 -0 -0 -1 -1 -0 -0 -1 -0 0 1 1 1 0 -0 -0 1 1 1 1 1 2 1 1 0 -1 -1 -0 -0 0 1 1 1 1 0 -0 -1 -1 -1 -1 -0 -1 -1 -1 -1 -1 -1 -1 -0 -1 -1 -1 -1 -2 -3 -3 -2 -2 -2 -2 -1 -1 -2 -2 -2
1 0 -0 -1 -1 -1 -1 -1 -0 -0 -0 -0 -0 0 0 1 1 1 1 1 1 1 1 1 1 1 1 0 -0 -1 -1 -1 -1 -1 -1 -0 0 1 1 0 0 -0 -1 -1 -0 -1 -1 -1 -1 -1 -1 1 0 -1 -2 -3 -3 -3 -3 -3 -3 -2 -2 -2 -2 -2 -2 -2 -2
1 -0 -1 -1 -1 -1 -0 -0 0 0 0 -0 -0 -0 0 1 1 1 1 1 -0 -0 -0 0 0 0 0 0 -0 -1 -1 -1 -1 -1 -1 -1 -0 0 0 1 0 0 -0 -0 -0 -0 -1 -1 -1 -1 -0 1 0 -1 -2 -3 -3 -3 -3 -3 -3 -2 -2 -2 -2 -2 -2 -2 -2
0 -1 -1 -1 -1 -0 0 1 1 0 -0 -1 -0 -0 0 0 0 0 0 -0 -1 -1 -1 -1 -1 -0 -0 -0 -0 -0 -1 -1 -1 -1 -1 -1 -1 -0 -0 -0 0 0 0 0 0 0 -1 -1 -1 -1 -1 -2 -1 -2 -2 -3 -3 -3 -3 -2 -2 -2 -2 -2 -2 -2 -2 -2 -2
-0 -0 -0 0 0 1 1 1 0 -0 -1 -1 -0 -0 -0 -0 -0 -0 -0 -1 -1 -1 -1 -1 -1 -1 -0 -0 -0 0 -0 -0 -0 -1 -1 -1 -1 -1 -1 -0 1 1 1 1 1 1 0 -1 -1 -1 -1 -1 -1 -2 -2 -3 -3 -3 -2 -2 -2 -2 -2 -2 -2 -2 -2 -2 -2
0 1 1 1 1 1 1 0 -0 -1 -1 -1 -1 -1 -1 -1 -1 -0 -0 -1 -1 -1 -1 -1 -1 -1 -1 -0 -0 0 0 0 0 -0 -0 -1 -1 -1 -0 0 1 2 2 1 1 1 1 0 -0 -1 -1 -1 -2 -2 -3 -3 -3 -2 -2 -1 -1 -1 -2 -2 -2 -2 -2 -2 -2
1 1 1 1 0 0 -0 -0 -1 -1 -1 -1 -1 -1 -1 -1 -0 -0 -0 -0 -0 -0 -1 -1 -1 -1 -1 -0 0 0 0 0 1 0 0 -0 0 0 1 1 1 2 2 2 1 1 1 1 0 -1 -2 -3 -3 -3 -3 -2 -2 -1 -1 -1 -1 -1 -2 -2 -2 -2 -2 -3 -3
1 1 1 0 -0 -0 -0 -0 -0 -1 -1 -1 -1 -1 -1 -0 -0 -0 -0 0 0 0 -1 -1 -1 -1 -0 0 0 0 0 0 1 1 1 1 1 1 2 1 1 2 2 2 1 1 0 -0 -1 -1 -2 -3 -3 -2 -2 -1 -1 -1 -1 -1 -2 -2 -2 -2 -2 -2 -2 -3 -3
1 1 1 -0 -0 -0 -0 -0 -0 -0 -0 -0 -1 -0 -0 -0 -0 -0 -0 0 0 -0 -1 -1 -0 0 0 0 1 1 1 1 1 1 1 2 2 2 2 2 2 2 2 2 1 0 -0 -1 -1 -1 -1 -1 -1 -1 -1 -1 -1 -1 -1 -2 -2 -2 -3 -3 -2 -2 -2 -3 -3
1 1 0 -0 -0 -0 0 0 -0 -0 -0 -0 -0 -0 -1 -1 -1 -0 -0 -0 -0 -0 0 1 1 1 1 1 1 1 1 1 1 1 2 2 1 1 1 2 2 2 1 1 0 0 0 -0 -0 -0 -1 -1 -1 -1 -1 -1 -2 -2 -2 -2 -3 -3 -3 -2 -2 -2 -3 -3 -3
1 1 1 0 0 0 0 0 -0 -0 -0 -1 -1 -1 -1 -1 -1 -0 0 0 1 1 1 2 2 2 2 2 2 2 1 1 2 1 1 1 1 1 1 1 1 1 0 0 -0 0 -0 -0 -1 -1 -1 -1 -1 -1 -2 -2 -2 -2 -2 -2 -2 -2 -2 -2 -2 -3 -3 -3 -3
1 1 1 1 1 0 0 0 -0 -1 -1 -1 -1 -1 -1 -0 0 1 1 1 2 2 2 2 2 2 2 2 2 1 1 1 1 1 1 1 1 1 1 1 0 -0 -0 -1 -1 -1 -1 -1 -1 -1 -1 -1 -2 -2 -2 -2 -2 -2 -2 -2 -2 -2 -2 -2 -3 -3 -3 -3 -4
2 2 1 1 1 0 0 -0 -1 -1 -1 -1 -1 -1 -0 0 1 1 2 2 2 1 1 1 1 1 2 1 1 1 1 1 1 1 1 1 1 1 1 0 -0 -1 -1 -1 -1 -1 -1 -1 -2 -2 -2 -2 -2 -2 -2 -2 -2 -2 -2 -2 -2 -2 -2 -3 -3 -3 -4 -4 -5
2 2 1 1 1 0 -0 -1 -1 -1 -1 -1 -1 -0 0 1 1 2 2 1 1 1 0 0 1 1 1 1 1 1 2 2 2 1 1 1 1 1 0 -0 -1 -1 -1 -1 -1 -1 -1 -1 -2 -2 -2 -2 -2 -2 -2 -2 -2 -2 -2 -2 -2 -2 -3 -3 -4 -4 -5 -5 -5
2 1 1 1 0 -0 -1 -1 -1 -1 -1 -0 0 1 1 1 1 1 1 1 1 0 0 0 0 1 1 1 1 2 2 2 2 2 1 1 0 -0 -0 -1 -1 -1 -0 -0 -0 -1 -1 -2 -2 -2 -2 -2 -2 -2 -2 -2 -2 -2 -2 -2 -3 -3 -4 -4 -5 -5 -5 -5 -5
1 1 1 0 -0 -0 -0 -0 -0 -0 0 1 1 1 1 1 1 1 1 1 0 0 0 0 0 1 1 1 1 2 2 2 2 2 1 0 -0 -1 -1 -1 -0 -0 0 0 -0 -1 -1 -2 -2 -2 -2 -2 -2 -2 -2 -2 -2 -2 -2 -2 -3 -3 -4 -4 -5 -5 -5 -5 -4
1 0 -0 -0 -0 -0 -0 -0 0 1 1 1 1 1 1 1 1 1 1 0 0 0 0 0 0 0 1 1 2 2 2 2 2 1 1 0 -1 -1 -1 -1 -0 0 0 -0 -1 -1 -2 -2 -2 -2 -2 -1 -1 -1 -1 -1 -2 -2 -2 -2 -3 -3 -3 -4 -4 -4 -4 -4 -3
0 -0 -0 -0 -0 -0 -0 0 1 1 1 1 2 2 2 2 1 1 1 0 0 0 1 1 0 1 1 2 2 2 2 2 1 1 0 -0 -1 -1 -1 -0 0 0 -0 -1 -1 -2 -2 -1 -1 -1 -1 -1 -1 -1 -1 -1 -1 -2 -2 -2 -2 -3 -3 -3 -3 -3 -2 -2 -2
-1 -1 -1 -0 -0 0 0 1 1 1 1 2 2 2 2 1 1 0 0 -0 0 1 1 1 1 1 2 3 2 2 2 2 1 0 -0 -1 -1 -1 -1 -0 -0 -0 -1 -1 -2 -1 -1 -1 -1 -1 -1 -1 -1 -1 -1 -1 -1 -1 -1 -2 -2 -2 -2 -2 -2 -2 -1 -1 -1
-1 -1 -1 -0 0 0 0 1 1 1 1 1 1 1 1 1 0 0 0 0 1 1 1 1 2 2 3 2 2 2 1 0 -0 -1 -1 -1 -1 -1 -1 -1 -1 -1 -1 -1 -1 -1 -1 -1 -1 -1 -1 -1 -1 -1 -1 -1 -1 -1 -1 -1 -1 -1 -1 -1 -1 -1 -1 -1 -1
-1 -1 -0 0 0 0 0 -0 0 0 0 1 0 0 0 0 0 0 0 1 1 1 1 2 3 3 2 2 1 1 0 -1 -1 -1 -1 -1 -1 -1 -1 -1 -1 -1 -1 -1 -1 -1 -1 -1 -1 -1 -1 -1 -1 -1 -2 -2 -2 -2 -2 -1 -1 -1 -1 -1 -0 -0 -1 -1 -1
-1 -0 0 0 0 -0 -0 -1 -1 -0 -0 -0 -0 -0 -0 -0 0 0 1 1 1 2 2 2 2 2 1 1 0 0 0 0 -0 -0 -1 -1 -1 -1 -1 -1 -1 -1 -1 -1 -0 -0 -0 -0 -0 -1 -1 -1 -2 -2 -2 -2 -2 -2 -2 -2 -1 -1 -1 -0 -0 -0 -1 -1 -1
-0 -0 0 0 0 -0 -1 -1 -1 -1 -1 -1 -1 -1 -0 -0 0 0 1 1 1 2 2 2 1 1 0 -0 0 1 1 1 0 -0 -1 -1 -1 -1 -1 -1 -1 -0 -0 -0 0 0 0 0 -0 -1 -1 -2 -2 -2 -3 -2 -2 -2 -2 -2 -1 -1 -0 -0 -0 -0 -1 -1 -1
-0 -0 -0 -0 -0 -1 -1 -1 -1 -1 -1 -1 -1 -1 -1 -0 -0 0 0 0 1 1 1 1 1 0 0 0 1 1 1 0 0 -0 -1 -1 -1 -1 -1 -1 -1 -0 0 0 0 0 0 0 -0 -1 -1 -2 -2 -2 -2 -2 -2 -2 -2 -1 -1 -1 -0 0 -0 -0 -1 -1 -1
-0 -0 -1 -1 -1 -1 -1 -1 -1 -1 -1 -1 -1 -1 -1 -0 -0 -0 -0 -0 -0 0 0 0 0 0 0 0 1 1 1 0 -0 -0 -1 -1 -1 -0 -0 -0 -0 -0 0 1 0 0 0 -0 -0 -1 -1 -2 -2 -2 -2 -2 -2 -2 -1 -1 -1 -0 -0 -0 -0 -0 -1 -1 -1
-1 -1 -1 -1 -1 -1 -1 -1 -1 -1 -1 -1 -1 -1 -1 -1 -1 -1 -1 -1 -0 -0 -0 -1 -0 -0 0 0 0 0 0 -0 -0 -0 -0 -0 -0 -0 -0 -0 -0 -0 0 0 0 0 -0 -0 -1 -1 -1 -1 -2 -2 -1 -1 -1 -1 -1 -0 -0 -0 -0 -0 -0 -1 -1 -1 -0
-1 -1 -0 -1 -1 -1 -1 -1 -1 -1 -1 -1 -1 -1 -1 -1 -1 -1 -1 -1 -1 -1 -1 -1 -0 -0 -0 -0 -0 -0 -0 0 0 0 -0 -0 0 0 0 -0 -0 -0 -0 0 0 0 -0 -0 -1 -1 -1 -1 -1 -1 -1 -1 -1 -0 -0 -0 -0 -0 -0 -0 -1 -1 -1 -1 -0
-1 -0 0 0 -0 -0 -1 -1 -1 -1 -1 -1 -1 -1 -1 -1 -1 -1 -1 -1 -1 -1 -1 -1 -0 -0 -0 -0 0 0 -0 0 1 1 1 0 0 0 1 0 -0 -0 -0 0 0 -0 -0 -1 -1 -1 -1 -1 -1 -1 -1 -0 -0 -0 -0 0 -0 -0 -0 -0 -0 -0 -0 -0 0
-0 0 1 1 0 -0 -0 -1 -1 -1 -1 -1 -1 -1 -1 -1 -1 -1 -1 -1 -0 -0 -0 -0 -0 -0 -0 0 1 1 0 0 1 1 1 1 1 1 1 1 0 -0 -1 -0 -0 -0 -1 -1 -1 -1 -1 -1 -1 -0 -0 0 0 0 -0 0 -0 -0 -0 -0 0 0 0 0 0
-0 0 0 1 0 0 -0 -1 -1 -1 -1 -1 -1 -1 -1 -1 -1 -1 -1 -1 -0 0 0 1 1 0 1 1 1 1 1 0 0 1 1 1 1 1 1 1 0 -0 -1 -0 -0 -1 -1 -1 -1 -1 -1 -0 -0 -0 0 0 0 0 -0 -0 0 0 -0 -0 0 1 1 0 0
-1 -0 -0 -0 -0 -0 -1 -1 -1 -1 -1 -1 -1 -1 -2 -2 -1 -1 -1 -0 -0 0 1 1 1 1 1 1 1 1 1 0 0 0 1 1 1 1 1 1 0 -0 -1 -1 -1 -1 -1 -1 -1 -1 -0 -0 0 0 1 1 1 0 -0 -0 0 0 1 0 0 1 1 1 0
Height
5764 5764 5764 5765 5765 5765 5765 5765 5765 5765 5766 5766 5766 5766 5766 5767 5767 5767 5767 5767 5767 5767 5767 5766 5766 5766 5766 5766 5766 5766 5765 5765 5765 5765 5764 5764 5763 5762 5762 5761 5760 5760 5760 5759 5759 5758 5758 5757 5756 5755 5754 5754 5754 5754 5754 5752 5750 5747 5745 5743 5741 5740 5739 5737 5736 5735 5733 5732 5730
5761 5761 5761 5762 5762 5762 5762 5762 5762 5763 5763 5763 5763 5763 5764 5764 5764 5764 5764 5764 5764 5764 5764 5764 5763 5763 5763 5763 5763 5762 5762 5761 5761 5761 5761 5760 5760 5759 5758 5758 5757 5757 5756 5756 5756 5755 5755 5755 5754 5752 5751 5751 5751 5750 5750 5748 5747 5745 5742 5740 5739 5738 5736 5734 5733 5731 5730 5728 5726
5758 5758 5759 5759 5759 5759 5760 5760 5760 5760 5760 5760 5760 5761 5761 5761 5761 5761 5761 5761 5761 5761 5761 5761 5760 5760 5760 5760 5759 5759 5759 5758 5758 5758 5757 5757 5756 5756 5755 5755 5754 5754 5753 5753 5753 5753 5753 5752 5751 5750 5748 5748 5748 5748 5746 5745 5743 5741 5740 5738 5736 5735 5734 5731 5730 5728 5726 5725 5723
5755 5755 5756 5756 5756 5756 5757 5757 5757 5757 5757 5758 5758 5758 5758 5758 5759 5759 5759 5758 5758 5758 5758 5758 5757 5757 5756 5756 5756 5755 5755 5755 5755 5755 5754 5754 5753 5752 5752 5751 5751 5751 5751 5750 5750 5750 5750 5751 5750 5749 5747 5745 5744 5743 5742 5741 5740 5738 5736 5735 5733 5732 5730 5728 5727 5725 5723 5721 5719
5752 5753 5753 5753 5754 5754 5754 5754 5755 5755 5755 5755 5755 5755 5755 5755 5756 5756 5755 5755 5755 5755 5755 5755 5754 5754 5753 5753 5752 5752 5752 5752 5752 5751 5751 5750 5750 5749 5749 5749 5748 5749 5749 5748 5748 5748 5748 5748 5748 5747 5745 5742 5741 5740 5740 5739 5737 5735 5733 5732 5730 5729 5727 5725 5724 5722 5720 5718 5716
5750 5750 5750 5750 5750 5751 5751 5751 5752 5752 5752 5753 5753 5753 5753 5753 5753 5753 5753 5752 5752 5752 5751 5751 5751 5750 5750 5750 5749 5749 5749 5749 5749 5748 5748 5747 5747 5747 5746 5746 5746 5745 5745 5745 5745 5745 5744 5744 5743 5742 5740 5739 5739 5738 5737 5736 5734 5732 5730 5729 5728 5726 5725 5723 5721 5719 5717 5715 5713
5747 5747 5747 5748 5748 5748 5749 5749 5749 5750 5750 5750 5750 5750 5750 5750 5750 5750 5749 5749 5749 5748 5748 5748 5747 5747 5747 5747 5746 5746 5746 5746 5745 5745 5745 5745 5744 5744 5744 5743 5743 5742 5742 5742 5741 5741 5740 5739 5739 5738 5737 5737 5737 5735 5734 5732 5730 5729 5728 5726 5725 5723 5722 5720 5718 5716 5714 5712 5710
5744 5744 5745 5745 5745 5745 5746 5746 5746 5746 5746 5746 5746 5746 5746 5746 5746 5746 5746 5745 5745 5745 5745 5745 5745 5744 5744 5744 5744 5743 5743 5743 5743 5742 5742 5742 5741 5741 5740 5740 5740 5740 5739 5738 5738 5737 5737 5736 5736 5735 5735 5733 5733 5731 5730 5729 5728 5726 5725 5724 5722 5720 5719 5717 5715 5713 5711 5709 5707
5741 5741 5742 5742 5742 5743 5743 5743 5743 5743 5743 5743 5743 5743 5743 5743 5743 5743 5743 5742 5742 5742 5742 5742 5741 5741 5741 5741 5741 5740 5740 5740 5740 5740 5739 5739 5739 5738 5738 5737 5737 5736 5736 5735 5735 5734 5734 5733 5732 5731 5731 5730 5729 5728 5727 5726 5725 5724 5722 5721 5719 5718 5716 5714 5712 5710 5708 5706 5703
5738 5739 5739 5739 5739 5740 5740 5740 5740 5740 5740 5740 5740 5740 5740 5740 5740 5740 5739 5739 5739 5739 5739 5739 5739 5739 5739 5738 5738 5738 5737 5737 5737 5737 5736 5736 5735 5735 5735 5734 5734 5733 5733 5732 5731 5731 5730 5730 5729 5728 5727 5727 5726 5725 5724 5723 5722 5720 5719 5718 5716 5715 5713 5711 5709 5707 5705 5702 5700
5735 5736 5736 5736 5736 5736 5736 5736 5736 5736 5736 5737 5737 5737 5737 5737 5737 5736 5736 5736 5736 5736 5736 5736 5736 5736 5736 5735 5735 5735 5735 5734 5734 5734 5733 5733 5733 5732 5732 5731 5730 5730 5730 5729 5728 5728 5727 5726 5725 5725 5724 5724 5723 5722 5721 5720 5719 5717 5716 5715 5713 5711 5710 5708 5706 5704 5701 5699 5696
5733 5733 5733 5733 5733 5733 5733 5733 5733 5734 5734 5734 5734 5734 5734 5734 5734 5734 5734 5734 5733 5733 5733 5733 5733 5733 5733 5732 5732 5732 5731 5731 5731 5730 5730 5730 5730 5729 5729 5728 5727 5727 5726 5726 5725 5725 5724 5723 5722 5722 5722 5722 5720 5719 5718 5717 5715 5714 5713 5711 5710 5708 5706 5705 5703 5700 5698 5696 5694
5730 5730 5730 5730 5730 5730 5730 5730 5730 5731 5731 5731 5731 5731 5731 5731 5731 5730 5730 5730 5730 5730 5730 5730 5730 5730 5730 5729 5729 5729 5728 5728 5728 5727 5727 5727 5726 5726 5725 5725 5725 5724 5723 5723 5722 5721 5721 5720 5720 5719 5719 5718 5717 5716 5715 5714 5712 5711 5710 5708 5707 5705 5704 5702 5700 5698 5695 5693 5690
5727 5727 5727 5727 5727 5728 5728 5728 5728 5728 5728 5728 5728 5728 5728 5728 5727 5727 5727 5727 5727 5727 5727 5727 5726 5726 5726 5726 5726 5725 5725 5725 5725 5725 5724 5724 5724 5723 5723 5722 5722 5721 5720 5720 5719 5719 5718 5717 5716 5716 5715 5714 5713 5713 5712 5710 5710 5708 5707 5705 5704 5702 5700 5699 5697 5695 5692 5690 5688
5724 5724 5725 5725 5725 5725 5725 5725 5725 5725 5725 5725 5725 5725 5725 5725 5725 5724 5724 5724 5724 5724 5724 5724 5723 5723 5723 5723 5723 5723 5722 5722 5722 5721 5721 5721 5720 5720 5720 5720 5719 5718 5718 5717 5717 5716 5715 5714 5713 5713 5712 5712 5711 5710 5709 5708 5706 5705 5704 5702 5700 5699 5697 5695 5694 5691 5690 5687 5685
5721 5722 5722 5722 5722 5722 5722 5722 5722 5722 5722 5722 5722 5722 5722 5722 5721 5721 5721 5721 5721 5721 5721 5721 5720 5720 5720 5720 5720 5720 5720 5719 5719 5719 5718 5718 5718 5717 5717 5717 5716 5715 5715 5714 5714 5713 5712 5711 5710 5710 5710 5709 5708 5707 5705 5704 5703 5702 5700 5699 5697 5696 5694 5692 5690 5689 5686 5684 5682
5719 5719 5719 5719 5719 5719 5719 5719 5719 5719 5719 5719 5719 5719 5719 5719 5719 5719 5719 5719 5718 5718 5718 5718 5718 5718 5717 5717 5717 5717 5716 5716 5716 5716 5715 5715 5715 5715 5714 5714 5713 5713 5712 5711 5710 5710 5709 5709 5708 5707 5706 5705 5705 5703 5702 5701 5700 5699 5697 5696 5694 5693 5691 5689 5687 5685 5683 5681 5679
5716 5716 5716 5716 5716 5716 5716 5716 5716 5716 5716 5716 5716 5716 5716 5716 5716 5716 5716 5716 5716 5715 5715 5715 5715 5715 5715 5714 5714 5714 5714 5714 5713 5713 5713 5713 5712 5712 5711 5711 5710 5710 5709 5708 5708 5707 5706 5706 5705 5704 5703 5702 5701 5700 5700 5698 5697 5696 5695 5693 5691 5690 5688 5686 5684 5682 5680 5678 5676
5713 5713 5713 5713 5713 5713 5714 5714 5714 5714 5714 5714 5714 5714 5714 5714 5714 5713 5713 5713 5713 5713 5713 5712 5712 5712 5712 5712 5711 5711 5711 5711 5711 5710 5710 5710 5710 5709 5709 5708 5707 5707 5706 5705 5705 5704 5704 5703 5702 5701 5700 5700 5699 5698 5697 5695 5694 5693 5691 5690 5688 5687 5685 5683 5681 5680 5678 5676 5674
5710 5710 5710 5710 5711 5711 5711 5711 5711 5711 5711 5711 5711 5711 5711 5711 5711 5711 5710 5710 5710 5710 5710 5710 5710 5710 5710 5710 5709 5709 5709 5708 5708 5708 5707 5707 5707 5706 5705 5705 5705 5704 5703 5703 5702 5701 5700 5700 5699 5699 5698 5697 5696 5695 5694 5693 5691 5690 5689 5687 5685 5684 5682 5680 5679 5677 5675 5673 5671
5708 5708 5708 5708 5708 5708 5708 5708 5708 5708 5708 5708 5708 5708 5708 5708 5708 5708 5708 5707 5707 5707 5707 5707 5707 5707 5707 5707 5707 5706 5706 5706 5705 5705 5705 5704 5704 5703 5703 5702 5702 5701 5700 5700 5699 5698 5698 5697 5696 5696 5695 5694 5693 5692 5691 5690 5689 5687 5686 5684 5683 5681 5680 5678 5676 5675 5673 5671 5669
5705 5705 5705 5705 5705 5705 5705 5705 5705 5705 5705 5705 5705 5705 5705 5705 5705 5705 5705 5705 5705 5705 5705 5705 5705 5705 5704 5704 5704 5703 5703 5703 5702 5702 5701 5701 5701 5700 5700 5699 5699 5698 5697 5697 5696 5695 5695 5694 5694 5693 5692 5691 5690 5689 5688 5687 5686 5685 5683 5682 5680 5679 5677 5675 5674 5672 5670 5668 5666
5703 5703 5703 5703 5703 5703 5703 5703 5703 5703 5703 5703 5703 5703 5703 5703 5703 5702 5702 5702 5702 5702 5702 5702 5702 5702 5701 5701 5701 5700 5700 5700 5700 5699 5699 5698 5698 5698 5697 5696 5696 5695 5695 5694 5693 5693 5692 5691 5691 5690 5689 5688 5687 5686 5685 5685 5683 5682 5680 5679 5678 5676 5675 5673 5671 5670 5668 5666 5664
5700 5700 5700 5700 5700 5700 5700 5700 5700 5700 5700 5700 5700 5700 5700 5700 5700 5700 5700 5700 5700 5700 5700 5699 5699 5699 5699 5698 5698 5698 5697 5697 5697 5696 5696 5696 5695 5695 5694 5694 5693 5693 5692 5691 5691 5690 5690 5689 5688 5687 5686 5686 5685 5684 5683 5682 5681 5680 5678 5677 5675 5674 5672 5670 5669 5667 5665 5663 5661
5698 5698 5698 5698 5698 5698 5698 5698 5698 5698 5698 5698 5698 5698 5698 5698 5698 5698 5698 5697 5697 5697 5697 5696 5696 5696 5696 5695 5695 5695 5695 5695 5694 5694 5694 5693 5693 5692 5692 5691 5690 5690 5689 5689 5688 5687 5687 5686 5685 5685 5684 5683 5682 5681 5680 5679 5678 5677 5675 5674 5673 5671 5670 5668 5666 5665 5663 5661 5659
5696 5696 5696 5696 5696 5695 5695 5695 5695 5695 5695 5695 5695 5695 5695 5695 5695 5695 5695 5695 5695 5695 5694 5694 5694 5693 5693 5693 5693 5692 5692 5692 5691 5691 5691 5690 5690 5690 5689 5689 5688 5687 5687 5686 5685 5685 5684 5683 5683 5682 5681 5680 5680 5679 5678 5677 5675 5674 5673 5672 5670 5669 5667 5666 5664 5663 5661 5659 5657
5693 5693 5693 5693 5693 5693 5693 5694 5694 5694 5694 5694 5694 5693 5693 5693 5693 5693 5693 5692 5692 5692 5691 5691 5691 5691 5691 5690 5690 5690 5690 5689 5689 5689 5688 5688 5688 5687 5687 5686 5685 5685 5684 5684 5683 5682 5681 5681 5680 5679 5679 5678 5677 5676 5675 5674 5673 5672 5670 5669 5668 5666 5665 5664 5662 5661 5659 5657 5656
5691 5691 5691 5691 5691 5691 5691 5691 5691 5692 5691 5691 5691 5691 5691 5691 5690 5690 5690 5690 5690 5689 5689 5689 5689 5688 5688 5688 5688 5687 5687 5687 5686 5686 5686 5685 5685 5685 5684 5684 5683 5682 5682 5681 5680 5680 5679 5678 5678 5677 5676 5675 5675 5674 5673 5672 5670 5669 5668 5667 5665 5664 5663 5661 5660 5659 5657 5656 5654
5689 5689 5689 5689 5690 5690 5690 5690 5690 5690 5690 5689 5689 5689 5689 5688 5688 5688 5688 5687 5687 5687 5687 5686 5686 5686 5686 5685 5685 5685 5685 5684 5684 5683 5683 5683 5683 5682 5682 5681 5680 5680 5679 5678 5678 5677 5676 5676 5675 5675 5674 5673 5672 5671 5670 5669 5668 5667 5666 5665 5663 5662 5660 5659 5658 5657 5655 5654 5652
5687 5687 5687 5687 5688 5688 5688 5688 5687 5687 5687 5687 5687 5686 5686 5686 5686 5685 5685 5685 5685 5685 5685 5684 5684 5684 5683 5683 5683 5682 5682 5681 5681 5681 5681 5680 5680 5680 5679 5679 5678 5677 5676 5676 5675 5675 5674 5674 5673 5672 5671 5670 5670 5669 5668 5667 5665 5665 5663 5662 5661 5660 5658 5657 5656 5655 5653 5652 5650
5685 5685 5685 5685 5685 5685 5685 5685 5685 5685 5685 5685 5684 5684 5684 5684 5684 5683 5683 5683 5683 5682 5682 5682 5681 5681 5681 5680 5680 5680 5679 5679 5679 5679 5678 5678 5678 5677 5677 5676 5675 5675 5674 5674 5673 5672 5672 5671 5670 5670 5669 5668 5667 5666 5665 5664 5663 5662 5661 5660 5659 5657 5656 5655 5654 5652 5651 5650 5648
5683 5683 5683 5684 5684 5683 5683 5683 5683 5683 5682 5682 5682 5682 5682 5681 5681 5681 5681 5680 5680 5680 5680 5679 5679 5679 5678 5678 5677 5677 5677 5677 5676 5676 5676 5675 5675 5675 5674 5674 5673 5672 5672 5671 5670 5670 5670 5669 5668 5667 5666 5665 5665 5664 5663 5662 5660 5660 5658 5657 5656 5655 5654 5653 5651 5650 5649 5647 5646
5681 5681 5681 5681 5681 5681 5681 5681 5680 5680 5680 5680 5680 5680 5679 5679 5679 5679 5678 5678 5678 5677 5677 5677 5676 5676 5675 5675 5675 5675 5675 5674 5674 5674 5673 5673 5672 5672 5672 5671 5670 5670 5669 5669 5668 5668 5667 5666 5666 5665 5664 5663 5662 5661 5660 5659 5658 5657 5656 5655 5654 5653 5652 5650 5649 5648 5646 5645 5644
5679 5679 5679 5679 5679 5679 5679 5679 5678 5678 5678 5678 5677 5677 5677 5677 5676 5676 5676 5675 5675 5675 5674 5674 5674 5673 5673 5673 5673 5672 5672 5672 5671 5671 5671 5670 5670 5670 5669 5669 5668 5668 5667 5666 5666 5665 5665 5664 5663 5662 5661 5660 5660 5659 5658 5656 5655 5655 5654 5653 5651 5650 5649 5648 5647 5646 5645 5643 5642
5677 5677 5677 5677 5677 5677 5677 5676 5676 5676 5675 5675 5675 5675 5675 5674 5674 5674 5673 5673 5672 5672 5672 5671 5671 5671 5670 5670 5670 5670 5670 5670 5669 5669 5668 5668 5667 5667 5667 5666 5665 5665 5665 5664 5663 5663 5662 5661 5660 5660 5659 5658 5657 5656 5655 5654 5653 5652 5651 5650 5649 5648 5647 5646 5645 5644 5642 5641 5640
5675 5675 5675 5675 5675 5675 5674 5674 5674 5674 5673 5673 5673 5672 5672 5672 5671 5671 5671 5670 5670 5670 5670 5669 5669 5669 5668 5668 5668 5667 5667 5667 5667 5666 5666 5665 5665 5665 5664 5664 5663 5662 5662 5661 5661 5660 5660 5659 5658 5657 5656 5655 5655 5654 5653 5652 5651 5650 5649 5648 5647 5646 5645 5644 5643 5641 5640 5639 5638
5673 5673 5673 5673 5673 5672 5672 5672 5671 5671 5671 5671 5670 5670 5670 5670 5669 5669 5668 5668 5668 5667 5667 5667 5666 5666 5666 5666 5665 5665 5665 5665 5664 5664 5663 5663 5662 5662 5661 5661 5660 5660 5659 5659 5658 5657 5657 5656 5655 5655 5654 5653 5652 5651 5650 5650 5649 5648 5647 5646 5645 5644 5643 5642 5640 5640 5638 5637 5636
5671 5671 5671 5670 5670 5670 5670 5670 5669 5669 5669 5669 5668 5668 5667 5667 5667 5666 5666 5665 5665 5665 5665 5665 5665 5664 5664 5663 5663 5663 5662 5662 5661 5661 5660 5660 5660 5659 5659 5658 5657 5657 5656 5656 5655 5655 5654 5653 5653 5652 5651 5650 5650 5649 5648 5647 5646 5646 5645 5644 5643 5642 5641 5640 5639 5637 5636 5635 5634
5669 5669 5669 5668 5668 5668 5668 5667 5667 5667 5666 5666 5666 5665 5665 5665 5665 5664 5664 5663 5663 5663 5663 5662 5662 5662 5661 5661 5660 5660 5660 5659 5659 5658 5658 5657 5657 5656 5656 5655 5655 5654 5654 5653 5652 5652 5651 5650 5650 5649 5649 5648 5647 5647 5646 5645 5645 5644 5643 5642 5641 5640 5639 5638 5637 5635 5635 5633 5632
5666 5666 5666 5666 5666 5666 5666 5665 5665 5665 5664 5664 5664 5663 5663 5662 5662 5662 5661 5661 5661 5660 5660 5660 5660 5659 5659 5659 5658 5658 5657 5657 5656 5655 5655 5655 5654 5653 5653 5652 5652 5651 5650 5650 5650 5649 5648 5648 5647 5647 5646 5645 5645 5644 5644 5643 5642 5641 5641 5640 5639 5638 5637 5636 5635 5634 5633 5631 5630
5665 5665 5665 5664 5664 5664 5664 5663 5663 5663 5662 5662 5661 5661 5660 5660 5660 5660 5659 5659 5659 5658 5658 5658 5657 5657 5656 5656 5655 5655 5655 5654 5653 5653 5652 5651 5651 5650 5650 5649 5649 5648 5648 5647 5647 5646 5646 5645 5645 5644 5644 5643 5643 5642 5641 5641 5640 5640 5639 5638 5637 5636 5635 5634 5633 5632 5630 5629 5628